Change the Weather History Date:

Wednesday, September 11, 2013

  Actual Average (KISN) Record (KISN)
Temperature  
Mean Temperature 62 °F 59 °F  
Max Temperature 77 °F 74 °F 94 °F (1939)
Min Temperature 48 °F 44 °F 24 °F (1964)
Degree Days  
Heating Degree Days 2 7  
Month to date heating degree days 60  
Since 1 July heating degree days 131  
Cooling Degree Days 0 1  
Month to date cooling degree days 18  
Year to date cooling degree days 447  
Growing Degree Days 12 (Base 50)    
Moisture  
Dew Point 47 °F    
Average Humidity 65    
Maximum Humidity 100    
Minimum Humidity 28    
Precipitation  
Precipitation 0.79 in 0.03 in 0.92 in (1980)
Month to date precipitation 0.41  
Year to date precipitation 11.53  
Snow  
Snow 0.00 in 0.00 in T in (1989)
Month to date snowfall 0.0  
Since 1 July snowfall 0.0  
Since 1 September snowfall 0.0  
Snow Depth -    
Sea Level Pressure  
Sea Level Pressure 30.17 in    
Wind  
Wind Speed 4 mph (NW)    
Max Wind Speed 13 mph    
Max Gust Speed 16 mph    
Visibility 10 miles    
Events Rain    
T = Trace of Precipitation, MM = Missing Value Source: NWS Daily Summary

Daily Weather History Graph

Daily Weather History Graph

Search for Another Location

Airport or City:

Trip Planner

Search our weather history database for the weather conditions in past years. The results will help you decide how hot, cold, wet, or windy it might be!

Date:

Astronomy

Sep. 11, 2013 Rise Set
Actual Time 7:25 AM CDT 8:12 PM CDT
Civil Twilight 6:53 AM CDT 8:44 PM CDT
Nautical Twilight 6:16 AM CDT 9:21 PM CDT
Astronomical Twilight 5:37 AM CDT 10:00 PM CDT
Moon 2:24 PM CDT (9/11) 11:42 PM CDT (9/11)
Length of Visible Light 13h 50m
Length of Day
12h 47m
Waxing Crescent, 39% of the Moon is Illuminated
Sep 11
Waxing Crescent
Sep 12
First Quarter
Sep 19
Full
Sep 26
Last Quarter
Oct 4
New

Hourly Weather History & Observations

Time (CDT) Temp. Dew Point Humidity Pressure Visibility Wind Dir Wind Speed Gust Speed Precip Events Conditions
12:15 AM 55.4 °F 53.6 °F 94% 30.05 in 10.0 mi SW 3.5 mph - N/A   Clear
12:35 AM 53.6 °F 51.8 °F 94% 30.06 in 10.0 mi SW 3.5 mph - N/A   Clear
12:55 AM 53.6 °F 51.8 °F 94% 30.06 in 10.0 mi SW 3.5 mph - N/A   Clear
1:15 AM 53.6 °F 50.0 °F 88% 30.07 in 10.0 mi SW 3.5 mph - N/A   Clear
1:35 AM 53.6 °F 50.0 °F 88% 30.07 in 10.0 mi SW 3.5 mph - N/A   Clear
1:55 AM 53.6 °F 50.0 °F 88% 30.07 in 10.0 mi SW 3.5 mph - N/A   Clear
2:15 AM 53.6 °F 50.0 °F 88% 30.07 in 10.0 mi SW 3.5 mph - N/A   Clear
2:35 AM 53.6 °F 50.0 °F 88% 30.08 in 10.0 mi SW 3.5 mph - N/A   Clear
2:55 AM 53.6 °F 50.0 °F 88% 30.08 in 10.0 mi SW 3.5 mph - N/A   Clear
3:15 AM 51.8 °F 50.0 °F 94% 30.08 in 10.0 mi SW 3.5 mph - N/A   Clear
3:35 AM 51.8 °F 50.0 °F 94% 30.08 in 10.0 mi WSW 3.5 mph - N/A   Clear
3:55 AM 51.8 °F 50.0 °F 94% 30.08 in 10.0 mi SW 5.8 mph - N/A   Clear
4:15 AM 50.0 °F 48.2 °F 94% 30.09 in 10.0 mi SW 4.6 mph - N/A   Clear
4:35 AM 51.8 °F 50.0 °F 94% 30.09 in 10.0 mi SW 3.5 mph - N/A   Clear
4:55 AM 50.0 °F 48.2 °F 94% 30.10 in 10.0 mi SW 3.5 mph - N/A   Clear
5:15 AM 50.0 °F 50.0 °F 100% 30.10 in 10.0 mi SW 4.6 mph - N/A   Clear
5:35 AM 51.8 °F 50.0 °F 94% 30.11 in 10.0 mi Calm Calm - N/A   Clear
5:55 AM 50.0 °F 50.0 °F 100% 30.11 in 10.0 mi SSW 4.6 mph - N/A   Clear
6:15 AM 51.8 °F 50.0 °F 94% 30.11 in 10.0 mi Calm Calm - N/A   Clear
6:35 AM 51.8 °F 50.0 °F 94% 30.12 in 10.0 mi Calm Calm - N/A   Clear
6:55 AM 50.0 °F 48.2 °F 94% 30.13 in 10.0 mi Calm Calm - N/A   Clear
7:15 AM 48.2 °F 48.2 °F 100% 30.13 in 10.0 mi Calm Calm - N/A   Clear
7:35 AM 50.0 °F 48.2 °F 94% 30.13 in 10.0 mi Calm Calm - N/A   Scattered Clouds
7:55 AM 50.0 °F 48.2 °F 94% 30.14 in 10.0 mi SW 3.5 mph - N/A   Partly Cloudy
8:15 AM 51.8 °F 50.0 °F 94% 30.14 in 10.0 mi Calm Calm - N/A   Clear
8:35 AM 53.6 °F 51.8 °F 94% 30.14 in 10.0 mi Calm Calm - N/A   Clear
8:55 AM 55.4 °F 51.8 °F 88% 30.15 in 10.0 mi Calm Calm - N/A   Clear
9:15 AM 57.2 °F 53.6 °F 88% 30.15 in 10.0 mi Calm Calm - N/A   Clear
9:35 AM 62.6 °F 53.6 °F 72% 30.16 in 10.0 mi Calm Calm - N/A   Clear
9:55 AM 62.6 °F 53.6 °F 72% 30.16 in 10.0 mi Calm Calm - N/A   Clear
10:15 AM 64.4 °F 53.6 °F 68% 30.17 in 10.0 mi Calm Calm - N/A   Clear
10:35 AM 66.2 °F 53.6 °F 64% 30.18 in 10.0 mi NNE 3.5 mph - N/A   Clear
10:55 AM 68.0 °F 51.8 °F 56% 30.18 in 10.0 mi NNE 3.5 mph - N/A   Clear
11:15 AM 69.8 °F 42.8 °F 38% 30.18 in 10.0 mi NE 4.6 mph - N/A   Clear
11:35 AM 71.6 °F 44.6 °F 38% 30.19 in 10.0 mi NNE 8.1 mph - N/A   Clear
11:55 AM 71.6 °F 44.6 °F 38% 30.20 in 10.0 mi NNE 8.1 mph - N/A   Clear
12:15 PM 71.6 °F 46.4 °F 41% 30.20 in 10.0 mi NNE 6.9 mph - N/A   Clear
12:35 PM 73.4 °F 44.6 °F 36% 30.20 in 10.0 mi NNW 5.8 mph - N/A   Clear
12:55 PM 73.4 °F 42.8 °F 33% 30.20 in 10.0 mi ENE 4.6 mph - N/A   Clear
1:15 PM 73.4 °F 41.0 °F 31% 30.20 in 10.0 mi North 8.1 mph - N/A   Clear
1:35 PM 75.2 °F 41.0 °F 29% 30.21 in 10.0 mi NNE 9.2 mph - N/A   Clear
1:55 PM 75.2 °F 41.0 °F 29% 30.20 in 10.0 mi North 4.6 mph - N/A   Clear
2:15 PM 75.2 °F 41.0 °F 29% 30.20 in 10.0 mi NNW 4.6 mph - N/A   Clear
2:35 PM 75.2 °F 41.0 °F 29% 30.20 in 10.0 mi North 6.9 mph - N/A   Clear
2:55 PM 75.2 °F 41.0 °F 29% 30.19 in 10.0 mi NW 6.9 mph - N/A   Clear
3:15 PM 77.0 °F 41.0 °F 28% 30.19 in 10.0 mi NNW 8.1 mph - N/A   Clear
3:35 PM 77.0 °F 41.0 °F 28% 30.19 in 10.0 mi NNW 8.1 mph - N/A   Clear
3:55 PM 77.0 °F 41.0 °F 28% 30.19 in 10.0 mi NW 11.5 mph - N/A   Clear
4:15 PM 77.0 °F 41.0 °F 28% 30.19 in 10.0 mi NW 4.6 mph - N/A   Clear
4:35 PM 77.0 °F 41.0 °F 28% 30.19 in 10.0 mi NW 9.2 mph - N/A   Clear
4:55 PM 77.0 °F 41.0 °F 28% 30.19 in 10.0 mi WNW 12.7 mph - N/A   Clear
5:15 PM 77.0 °F 41.0 °F 28% 30.20 in 10.0 mi NW 12.7 mph - N/A   Clear
5:35 PM 77.0 °F 41.0 °F 28% 30.20 in 10.0 mi North 8.1 mph - N/A   Clear
5:55 PM 77.0 °F 41.0 °F 28% 30.20 in 10.0 mi NNW 9.2 mph 16.1 mph N/A   Clear
6:15 PM 75.2 °F 41.0 °F 29% 30.20 in 10.0 mi NW 11.5 mph - N/A   Clear
6:35 PM 75.2 °F 41.0 °F 29% 30.20 in 10.0 mi North 10.4 mph - N/A   Clear
6:55 PM 75.2 °F 41.0 °F 29% 30.20 in 10.0 mi North 8.1 mph - N/A   Clear
7:15 PM 73.4 °F 41.0 °F 31% 30.20 in 10.0 mi North 6.9 mph - N/A   Clear
7:35 PM 71.6 °F 44.6 °F 38% 30.20 in 10.0 mi North 6.9 mph - N/A   Clear
7:55 PM 66.2 °F 46.4 °F 49% 30.21 in 10.0 mi North 4.6 mph - N/A   Clear
8:15 PM 64.4 °F 44.6 °F 49% 30.21 in 10.0 mi NNE 4.6 mph - N/A   Clear
8:35 PM 62.6 °F 44.6 °F 52% 30.22 in 10.0 mi NNE 4.6 mph - N/A   Clear
8:55 PM 59.0 °F 46.4 °F 63% 30.23 in 10.0 mi Calm Calm - N/A   Clear
9:15 PM 59.0 °F 46.4 °F 63% 30.24 in 10.0 mi Calm Calm - N/A   Clear
9:35 PM 55.4 °F 46.4 °F 72% 30.25 in 10.0 mi Calm Calm - N/A   Clear
9:55 PM 53.6 °F 48.2 °F 82% 30.25 in 10.0 mi Calm Calm - N/A   Clear
10:15 PM 53.6 °F 48.2 °F 82% 30.26 in 10.0 mi Calm Calm - 0.79 in Rain Light Rain
10:35 PM 50.0 °F 46.4 °F 87% 30.26 in 10.0 mi Calm Calm - 0.79 in   Clear
10:55 PM 51.8 °F 48.2 °F 88% 30.27 in 10.0 mi Calm Calm - 0.79 in   Clear
11:15 PM 53.6 °F 46.4 °F 77% 30.27 in 10.0 mi Calm Calm - N/A   Clear
11:35 PM 50.0 °F 46.4 °F 87% 30.27 in 10.0 mi Calm Calm - N/A   Clear
11:55 PM 50.0 °F 46.4 °F 87% 30.28 in 10.0 mi Calm Calm - N/A   Clear